ATLAS 5 CENTAUR DEB, 44040

Orbit data source: Space-Track

ATLAS 5 CENTAUR DEB, 44040 is space debris in HEO originally from a launch on Wed, 17 Sep 2014 UTC launched from the Air Force Eastern Test Range (AFETR). Debris objects in space refer to the collection of defunct objects orbiting the Earth. Examples of debris include non-operational satellites, rocket bodies, and fragments generated from explosions, collisions, or faulty payload assembly.

Loading next visibility...
ATLAS 5 CENTAUR DEB details
Identifier
44040, 2014-055CA
Orbit
HEO
Last TLE update2 weeks ago
Origin
Flag of USULA (US)
ManufacturerUnknown
MissionSpacecraft
Bus & MotorUnknown
MassUnknown
Launch date (UTC)
2014-09-17 (10 years ago)
Launch vehicleUnknown
Launch site
Air Force Eastern Test Range (AFETR)
Object type
Payload
Rocket body
Debris
Shape & HBRUnknown
Radar Cross SectionSmall (<0.1 m²)

Expand to show TLE details & history

TLE from 2 weeks ago
0 ATLAS 5 CENTAUR DEB
1 44040U 14055CA  24328.27982500 -.00000032  00000-0  00000-0 0  9995
2 44040  19.7055 193.3577 4897077  80.1948 329.8247  1.88067998 41116
Epoch: 2024-11-23T06:42Z
Definitive object data (Epoch: 2024-11-23T06:42:56.88Z)
Latitude
Longitude29.97014°
Altitude13,042.621 km
Speed5.164 km/s
True Right ascension12h 53m 46s
True Declination0° 00' 00"
Sunlit
Object was in daylight at TLE epoch
Visualization TLE readout
Latitude-7.86523°
Longitude-128.61944°
Altitude21,990.368 km
Speed3.705 km/s
Apparent Right ascension02h 38m 07s
Apparent Declination-18° 33' 10"
Sunlit
Object is in daylight
Visualization observer readout
Local Sidereal Time00:46:33
Azimuth150.432° SSE
Elevation26.008°
Doppler factor1
Orbital elements
Apogee altitude34,925.762 km
Perigee altitude7,770.317 km
Semi-major axis27,726.176 km
Eccentricity0.4897077
Inclination19.7055°
RAAN193.3577°
Arg. of periapsis80.1948°
True anomaly279.88024°
Mean anomaly329.8247°
Eccentric anomaly307.59214°
Mean motion0.47012 °/min
BSTARUnknown
Orbital period765.76 mins
Loading maneuver chart data...

ATLAS 5 CENTAUR DEB Visibility forecast

Observer location: undefined°, undefined

Span
Click to sort rows by Start time (UTC) header in descending order
Start Az.
Max El. time (UTC)
Max El. Az.
Max El.
End time (UTC)
End Az.
583 mins2024-12-05 02:49:25.004Z150.446° SSE2024-12-05 02:49:25.004Z150.446° SSE23.664°2024-12-05 12:32:25.004Z110.128° ESE
24 mins2024-12-06 02:25:25.004Z262.957° W2024-12-06 02:49:25.004Z234.822° WSW26.599°2024-12-06 02:49:25.004Z234.822° WSW
|